Terminal Aerodrome Forecast
Issued by NWS

Home | Current Version | Previous Version | Text Only | Print | Product List | Glossary On
Versions: 1 2 3 4 5 6 7 8 9 10 11 12
451
FTUS45 KRIW 102338
TAFLND
TAF
KLND 102338Z 1100/1124 25012KT P6SM VCSH BKN070
     FM110400 29010KT P6SM BKN060
     FM110800 28008KT P6SM VCSH BKN050
     FM111400 VRB06KT P6SM SCT080=

USA.gov is the U.S. government's official web portal to all federal, state and local government web resources and services.